Henderson, KY

5:50 AM CST on November 14, 2019 (GMT -0600)
Henderson City-County

Weather History for KEHR - September, 2019

Change the Weather History Date:

Saturday, September 21, 2019

  Actual Average Record
Temperature  
Mean Temperature 77 °F -  
Max Temperature 90 °F 79 °F 99 °F (1940)
Min Temperature 63 °F 56 °F 38 °F (1991)
Cooling Degree Days 12    
Growing Degree Days 27 (Base 50)    
Moisture  
Dew Point 60 °F    
Average Humidity 61    
Maximum Humidity 84    
Minimum Humidity 30    
Precipitation  
Precipitation 0.00 in - - ()
Sea Level Pressure  
Sea Level Pressure 30.16 in    
Wind  
Wind Speed 6 mph (South)    
Max Wind Speed 14 mph    
Max Gust Speed 21 mph    
Visibility 10 miles    
Events      
Averages and records for this station are not official NWS values.
T = Trace of Precipitation, MM = Missing Value Source: NWS Daily Summary

Daily Weather History Graph

Daily Weather History Graph

Search for Another Location

Airport or City:

Astronomy

Sep. 21, 2019 Rise Set
Actual Time 6:37 AM CDT 6:49 PM CDT
Civil Twilight 6:11 AM CDT 7:15 PM CDT
Nautical Twilight 5:40 AM CDT 7:46 PM CDT
Astronomical Twilight 5:09 AM CDT 8:17 PM CDT
Moon 11:33 PM CDT (9/21) 1:36 PM CDT (9/21)
Length of Visible Light 13h 04m
Length of Day
12h 12m
Waning Gibbous, 54% of the Moon is Illuminated
Sep 21
Waning Gibbous
Sep 21
Last Quarter
Sep 28
New
Oct 5
First Quarter
Oct 13
Full

Hourly Weather History & Observations

Time (CDT) Temp. Heat Index Dew Point Humidity Pressure Visibility Wind Dir Wind Speed Gust Speed Precip Events Conditions
12:56 AM 73.0 °F - 64.0 °F 73% 30.17 in 10.0 mi South 4.6 mph - N/A   Clear
1:56 AM 72.0 °F - 63.0 °F 73% 30.17 in 10.0 mi South 4.6 mph - N/A   Clear
2:56 AM 71.1 °F - 63.0 °F 75% 30.17 in 10.0 mi SSE 3.5 mph - N/A   Clear
3:56 AM 71.1 °F - 64.0 °F 78% 30.18 in 10.0 mi South 4.6 mph - N/A   Clear
4:56 AM 72.0 °F - 64.0 °F 76% 30.18 in 10.0 mi South 4.6 mph - N/A   Clear
5:56 AM 71.1 °F - 64.0 °F 78% 30.20 in 10.0 mi South 3.5 mph - N/A   Clear
6:56 AM 70.0 °F - 64.0 °F 81% 30.21 in 10.0 mi South 4.6 mph - N/A   Clear
7:56 AM 72.0 °F - 63.0 °F 73% 30.23 in 10.0 mi South 6.9 mph - N/A   Clear
8:56 AM 77.0 °F - 64.0 °F 64% 30.23 in 10.0 mi SSW 6.9 mph - N/A   Clear
9:56 AM 82.0 °F 83.1 °F 63.0 °F 52% 30.23 in 10.0 mi SSW 10.4 mph - N/A   Clear
10:56 AM 84.9 °F 85.0 °F 61.0 °F 44% 30.22 in 10.0 mi SSW 13.8 mph 17.3 mph N/A   Clear
11:56 AM 87.1 °F 86.7 °F 60.1 °F 40% 30.21 in 10.0 mi SSW 11.5 mph 19.6 mph N/A   Clear
12:56 PM 88.0 °F 86.9 °F 57.9 °F 36% 30.18 in 10.0 mi SW 10.4 mph - N/A   Clear
2:56 PM 90.0 °F 88.1 °F 55.9 °F 31% 30.14 in 10.0 mi SSE 11.5 mph - N/A   Clear
3:56 PM 90.0 °F 87.9 °F 55.0 °F 30% 30.12 in 10.0 mi South 8.1 mph 20.7 mph N/A   Clear
4:56 PM 88.0 °F 85.9 °F 54.0 °F 31% 30.12 in 10.0 mi South 11.5 mph - N/A   Clear
5:56 PM 84.0 °F 82.9 °F 55.0 °F 37% 30.11 in 10.0 mi South 4.6 mph - N/A   Clear
6:56 PM 79.0 °F - 55.9 °F 45% 30.11 in 10.0 mi South 5.8 mph - N/A   Clear
7:56 PM 73.0 °F - 59.0 °F 61% 30.12 in 10.0 mi South 3.5 mph - N/A   Clear
8:56 PM 66.9 °F - 60.1 °F 79% 30.12 in 10.0 mi South 4.6 mph - N/A   Clear
9:56 PM 64.9 °F - 60.1 °F 84% 30.13 in 10.0 mi Calm Calm - N/A   Clear
10:56 PM 66.0 °F - 59.0 °F 78% 30.12 in 10.0 mi North - - N/A   Clear
11:56 PM 63.0 °F - 57.9 °F 84% 30.12 in 10.0 mi South 4.6 mph - N/A   Clear